RTU MIREA 1 (RS51S)

Last updated on Thu Oct 30 2025 00:03:11 GMT+0000 (Coordinated Universal Time)

1 61785U 24199BC 25302.58037347 .00033697 00000+0 82813-3 0 9993 2 61785 97.3278 170.8808 0014520 49.1194 311.1307 15.40470649 98741
UTC large
Height (km)
Speed (km/s)
/
Latitude / Longitude
Inclination (degrees)
Orbital Period (minutes)
Azimuth
Elevation
Range (km)
Doppler Factor

Next 0 passes for location: London (51.5072 / 0.1276)

Sorry there are no passes over London.